Regional Weather Roundup
Issued by NWS

Home | Current Version | Previous Version | Text Only | Print | Product List | Glossary On
Versions: 1 2 3 4 5 6 7 8 9 10 11 12 13 14 15 16 17 18 19 20 21 22 23 24 25 26 27 28 29 30 31 32 33 34 35 36 37 38 39 40 41 42 43 44 45 46 47 48 49 50
000
ASUS43 KMKX 022020
RWRWI

WISCONSIN REGIONAL WEATHER ROUNDUP
NATIONAL WEATHER SERVICE MILWAUKEE/SULLIVAN WI
200 PM CST MON MAR 02 2015

NOTE: "FAIR" INDICATES FEW OR NO CLOUDS BELOW 12,000 FEET WITH NO
SIGNIFICANT WEATHER AND/OR OBSTRUCTIONS TO VISIBILITY.

WIZ001-002-006>008-014>016-023>028-022100-
NORTHWEST WISCONSIN

CITY           SKY/WX    TMP DP  RH WIND       PRES   REMARKS
SUPERIOR ARPT  SUNNY     28   8  42 S6        30.29F WCI  22
ASHLAND        SUNNY     28   5  37 SW10      30.33F WCI  19
HAYWARD        SUNNY     23   3  42 S7        30.30F WCI  15
SIREN          SUNNY     26   4  38 S12       30.33F WCI  16
CUMBERLAND     SUNNY     23   5  46 S7        30.33F WCI  15
RICE LAKE      SUNNY     24   5  45 S7        30.36F WCI  16
CHETEK         SUNNY     24   6  45 S6        30.36F WCI  17
LADYSMITH      SUNNY     25   4  40 SW7       30.36F WCI  17
EAU CLAIRE     SUNNY     24   5  44 S8        30.37  WCI  15
MENOMONIE      SUNNY     25   6  44 S9        30.38F WCI  16
NEW RICHMOND   SUNNY     25   8  48 S10       30.35F WCI  15
OSCEOLA        SUNNY     27   7  42 S8        30.37F WCI  18
$$

WIZ003>005-009-010-017-018-022100-
NORTH CENTRAL WISCONSIN

CITY           SKY/WX    TMP DP  RH WIND       PRES   REMARKS
MANITOWISH WTR SUNNY     24   2  39 W6        30.29F WCI  17
ARBOR VITAE    SUNNY     25   3  39 SW6       30.29F WCI  18
WOODRUFF       SUNNY     25   3  39 SW6       30.29F WCI  18
RHINELANDER    SUNNY     25   3  38 W7        30.31F WCI  17
EAGLE RIVER    SUNNY     24   1  36 SW8       30.29F WCI  16
LAND O LAKES   SUNNY     27   1  33 SW5       30.28F WCI  21
PHILLIPS       SUNNY     22   3  43 SW6       30.31F WCI  15
TOMAHAWK       SUNNY     25   0  34 W3        30.32F
MEDFORD        SUNNY     21   4  48 SW7       30.33F WCI  12
MERRILL        SUNNY     26   6  42 SW9       30.34F WCI  17
$$

WIZ029-030-035-036-043>047-022100-
CENTRAL WISCONSIN

CITY           SKY/WX    TMP DP  RH WIND       PRES   REMARKS
WAUSAU         SUNNY     22   4  46 NW7       30.35F WCI  13
MOSINEE        SUNNY     21   9  58 SW7       30.38  WCI  13
MARSHFIELD     SUNNY     23   4  44 NW5       30.37F WCI  17
STEVENS POINT  SUNNY     22   4  45 NW3       30.39F
WAUPACA        SUNNY     31   4  32 S5        30.41F WCI  26
WAUTOMA        SUNNY     28   4  36 CALM      30.40
WISC RAPIDS    SUNNY     27   4  37 N5        30.40F WCI  22
CAMP DOUGLAS   PTSUNNY   27   9  46 NE2       30.39
$$

WIZ011>013-019>022-031-037>040-048>050-022100-
NORTHEAST WISCONSIN

CITY           SKY/WX    TMP DP  RH WIND       PRES   REMARKS
ANTIGO         SUNNY     22   7  51 SW6       30.33F WCI  15
SHAWANO        SUNNY     29   6  38 SW8       30.40F WCI  21
OCONTO         SUNNY     27   8  43 W8        30.40F WCI  19
STURGEON BAY   SUNNY     25   9  50 W8        30.43F WCI  16
GREEN BAY      SUNNY     26  10  50 SW8       30.42F WCI  18
MANITOWOC      SUNNY     31  11  43 W6        30.44  WCI  25
APPLETON       MOSUNNY   27   9  46 SW9       30.41F WCI  17
CLINTONVILLE   SUNNY     28   9  43 W3        30.40F
OSHKOSH        SUNNY     25   9  50 SW6       30.41F WCI  18
$$

WIZ032>034-041-042-053>061-022100-
SOUTHWEST WISCONSIN

CITY           SKY/WX    TMP DP  RH WIND       PRES   REMARKS
LA CROSSE      MOSUNNY   27   8  44 S7        30.42F WCI  19
SPARTA         SUNNY     28   4  36 SE3       30.41F
VIROQUA        MOSUNNY   25   9  51 SW3       30.37F
BOSCOBEL       MOSUNNY   29  12  49 VRB7      30.42F WCI  22
PRAIRIE DU CHI MOSUNNY   27  11  49 SW5       30.42F WCI  22
PLATTEVILLE    MOSUNNY   23  12  63 E3        30.41F
$$

WIZ056-057-062-063-064-067-068-022100-
SOUTH CENTRAL WISCONSIN

CITY           SKY/WX    TMP DP  RH WIND       PRES   REMARKS
REEDSBURG      SUNNY     26   9  50 S3        30.40F
BARABOO/DELLS  SUNNY     26   7  43 W6        30.40F WCI  19
LONE ROCK      MOSUNNY   27   8  44 CALM      30.41
MINERAL POINT  MOSUNNY   28  12  50 CALM      30.40F
MADISON        PTSUNNY   26   7  44 S7        30.42F WCI  18
MIDDLETON      SUNNY     29   6  37 S6        30.41F WCI  23
WATERTOWN      SUNNY     27  10  47 SW5       30.42F WCI  22
MONROE         MOSUNNY   27  16  63 SE6       30.41F WCI  20
JANESVILLE     SUNNY     27  10  50 W5        30.43  WCI  21
$$

WIZ051-052-058>065-066-070>072-022100-
SOUTHEAST WISCONSIN

CITY           SKY/WX    TMP DP  RH WIND       PRES   REMARKS
MILWAUKEE      PTSUNNY   27   7  42 S5        30.44F WCI  22
WAUKESHA       PTSUNNY   25   9  50 CALM      30.44F
MILWAUKEE/TIMM SUNNY     28   3  34 CALM      30.45F
RACINE         SUNNY     27   8  44 CALM      30.46F
BURLINGTON     SUNNY     26   8  45 W3        30.44F
KENOSHA        SUNNY     27  10  49 CALM      30.44F
FOND DU LAC    SUNNY     27  11  51 SW7       30.42F WCI  19
SHEBOYGAN      SUNNY     26   9  48 SW6       30.43F WCI  19
WEST BEND      SUNNY     28   5  37 SW3       30.42F
JUNEAU         SUNNY     26   9  49 S5        30.42F WCI  20
$$

LSZ147-162-022100-
LAKE SUPERIOR

STATION/POSITION TIME  TEMP    WIND        PRES    WAVE
                       AIR SEA DIR/SP/G            HT/PER
                 (UTC) (F)     (DEG/KT/KT) (MB)    (FT/S)
DEVILS ISLAND    2000   23     250/ 15/ 19 1027.9F
PORT WING        1940   25     280/  9/ 22 1027.1F
SAXON HARBOR     1900   27     230/  5/ 12 1028.4F
$$

LMZ867-665-643>646-022100-
LAKE MICHIGAN

STATION/POSITION TIME  TEMP    WIND        PRES    WAVE
                       AIR SEA DIR/SP/G            HT/PER
                 (UTC) (F)     (DEG/KT/KT) (MB)    (FT/S)
NORTHPORT PIER   1900   26     300/  3/  9 1030.1F
SISTER BAY       1913   39     270/  6/  8   N/A
KEWAUNEE LAKESHO 1900   26     210/  6/  9 1029.8F
SHEBOYGAN LAKESH 2000   24     150/  8/ 10 1032.2F
PORT WASHINGTON  1940   26     150/  8/ 10 1031.5F
MILWAUKEE LAKESH 2000   24     120/ 10/ 11   N/A
KENOSHA   LAKESH 2000   29     120/  6/  7 1030.8F
$$

TC  - TEMPERATURE IN CELSIUS
VSB - VISIBILITY IN STATUTE MILES
WCI - WIND CHILL INDEX
HX  - HEAT INDEX



USA.gov is the U.S. government's official web portal to all federal, state and local government web resources and services.